User: anonymous   Login
Location: Cincinnati Observatory Center
(39.1389°N, 84.4225°W)
Time: 18:53:02
(UTC-04:00)
Language:

COSMOS 2428 - Orbit

View from above orbital plane
View from above orbital plane
View from above satellite
View from above satellite

Ground track
Ground track

The orbit data is extracted from the following two-line orbital elements,

1 31792U 07029A   18114.47170329  .00000295  00000-0  18529-3 0  9992
2 31792  70.9555 119.0982 0009466 190.0531 170.0402 14.12500807558021
Epoch (UTC): 24 April 2018 11:19:15
Eccentricity: 0.0009466
inclination: 70.9555°
perigee height: 844 km
apogee height: 857 km
right ascension of ascending node: 119.0982°
argument of perigee: 190.0531°
revolutions per day: 14.12500807
mean anomaly at epoch: 170.0402°
orbit number at epoch: 55802

The dashed part of the orbit path shows where the satellite is in the earth's shadow,  

DLR